This demonstration page uses our WeatherBlox Daily Observations layout. Learn more.

41.55636, -103.73856

Hourly Observations for December 31, 2015

Temp ( °F °C ) Dew Point ( °F °C ) Humidity (%) Winds ( mph kmh ) Pressure ( in mb ) Visibility ( mi km ) Precip ( " mm )
12:53 am 00:53 Clear -2 -19 -6 -21 84 84 NW 7 11 30.65 1038 8 12.874752 0 0
1:53 am 01:53 Clear 0 -18 -6 -21 78 78 NW 9 15 30.62 1037 8 12.874752 0 0
2:53 am 02:53 Partly Cloudy 1 -17 -2 -19 85 85 NNW 7 11 30.65 1038 9 14.484096 0 0
3:53 am 03:53 Clear 3 -16 0 -18 85 85 NNW 10 17 30.62 1037 10 16.09344 0 0
4:53 am 04:53 Clear 1 -17 -2 -19 85 85 NNW 9 15 30.68 1039 10 16.09344 0 0
5:53 am 05:53 Clear 3 -16 0 -18 85 85 NNW 13 20 30.65 1038 10 16.09344 0 0
6:53 am 06:53 Clear 3 -16 0 -18 85 85 NW 9 15 30.68 1039 10 16.09344 0 0
7:53 am 07:53 Sunny 3 -16 0 -18 85 85 NW 9 15 30.68 1039 10 16.09344 0 0
8:53 am 08:53 Sunny 9 -13 3 -16 78 78 WNW 13 20 30.68 1039 10 16.09344 0 0
9:53 am 09:53 Sunny 16 -9 7 -14 67 67 WNW 10 17 30.65 1038 10 16.09344 0 0
10:53 am 10:53 Sunny 19 -7 10 -12 68 68 WNW 14 22 30.59 1036 10 16.09344 0 0
11:53 am 11:53 Sunny 25 -4 12 -11 59 59 WNW 21 33 30.56 1035 10 16.09344 0 0
12:53 pm 12:53 Sunny 27 -3 14 -10 59 59 NW 23 37 30.5 1033 10 16.09344 0 0
1:53 pm 13:53 Mostly Sunny 27 -3 12 -11 54 54 NW 20 31 30.5 1033 10 16.09344 0 0
2:53 pm 14:53 Sunny 27 -3 12 -11 54 54 WNW 20 31 30.53 1034 10 16.09344 0 0
3:53 pm 15:53 Sunny 25 -4 10 -12 54 54 WNW 14 22 30.56 1035 10 16.09344 0 0
4:53 pm 16:53 Clear 19 -7 9 -13 63 63 NW 8 13 30.59 1036 10 16.09344 0 0
5:53 pm 17:53 Cloudy 19 -7 10 -12 68 68 WNW 12 19 30.59 1036 10 16.09344 0 0
6:53 pm 18:53 Mostly Cloudy 19 -7 9 -13 63 63 WNW 10 17 30.65 1038 10 16.09344 0 0
7:53 pm 19:53 Clear 16 -9 7 -14 67 67 WNW 7 11 30.68 1039 10 16.09344 0 0
8:53 pm 20:53 Clear 12 -11 3 -16 67 67 NW 7 11 30.71 1040 10 16.09344 0 0
9:53 pm 21:53 Clear 7 -14 1 -17 78 78 NW 9 15 30.77 1042 10 16.09344 0 0
10:53 pm 22:53 Clear 7 -14 1 -17 78 78 NW 7 11 30.77 1042 10 16.09344 0 0
11:53 pm 23:53 Clear 5 -15 0 -18 78 78 NW 9 15 30.77 1042 10 16.09344 0 0

Powered by AerisWeather